| time (UTC) | temp C | wind direction | speed KPH | gust KPH | rain 1hr cm | rain 24hr cm | rain mn cm | humidity % | barometer mb |
| 20260505093204 | 20 | 190 | 4.8 | 11.3 | 0.00 | 0.00 | 0.00 | 86 | 1007.2 |
| 20260505092704 | 20 | 140 | 6.4 | 16.1 | 0.00 | 0.00 | 0.00 | 86 | 1007.3 |
| 20260505092204 | 20 | 169 | 6.4 | 12.9 | 0.00 | 0.00 | 0.00 | 86 | 1007.3 |
| 20260505091704 | 20 | 201 | 4.8 | 11.3 | 0.00 | 0.00 | 0.00 | 85 | 1007.3 |
| 20260505091204 | 20 | 140 | 1.6 | 9.7 | 0.00 | 0.00 | 0.00 | 85 | 1007.3 |
| 20260505090704 | 20 | 167 | 3.2 | 9.7 | 0.00 | 0.00 | 0.00 | 85 | 1007.2 |
| 20260505090204 | 20 | 145 | 6.4 | 14.5 | 0.00 | 0.00 | 0.00 | 85 | 1007.2 |
| 20260505085704 | 20 | 172 | 3.2 | 9.7 | 0.00 | 0.00 | 0.00 | 85 | 1007.4 |
| 20260505084703 | 20 | 135 | 4.8 | 12.9 | 0.00 | 0.00 | 0.00 | 84 | 1007.3 |
| 20260505084203 | 20 | 168 | 3.2 | 9.7 | 0.00 | 0.00 | 0.00 | 84 | 1007.3 |
| 20260505083704 | 20 | 164 | 4.8 | 12.9 | 0.00 | 0.00 | 0.00 | 84 | 1007.2 |
| 20260505083203 | 20 | 153 | 3.2 | 14.5 | 0.00 | 0.00 | 0.00 | 84 | 1007.2 |
| 20260505082704 | 20 | 148 | 6.4 | 19.3 | 0.00 | 0.00 | 0.00 | 84 | 1007.3 |
| 20260505082204 | 20 | 162 | 4.8 | 11.3 | 0.00 | 0.00 | 0.00 | 83 | 1007.3 |
| 20260505081704 | 20 | 169 | 4.8 | 9.7 | 0.00 | 0.00 | 0.00 | 83 | 1007.3 |
| 20260505081204 | 20 | 156 | 6.4 | 19.3 | 0.00 | 0.00 | 0.00 | 83 | 1007.3 |
| 20260505080704 | 20 | 175 | 4.8 | 14.5 | 0.00 | 0.00 | 0.00 | 83 | 1007.4 |
| 20260505080204 | 20 | 135 | 4.8 | 19.3 | 0.00 | 0.00 | 0.00 | 82 | 1007.5 |
| 20260505075703 | 20 | 198 | 3.2 | 12.9 | 0.00 | 0.00 | 0.00 | 82 | 1007.6 |
| 20260505075203 | 20 | 205 | 4.8 | 11.3 | 0.00 | 0.00 | 0.00 | 82 | 1007.6 |
| 20260505074704 | 20 | 192 | 3.2 | 12.9 | 0.00 | 0.00 | 0.00 | 82 | 1007.5 |
| 20260505074204 | 20 | 154 | 6.4 | 19.3 | 0.00 | 0.00 | 0.00 | 82 | 1007.6 |
| 20260505073704 | 20 | 146 | 4.8 | 12.9 | 0.00 | 0.00 | 0.00 | 81 | 1007.6 |
| 20260505073204 | 20 | 231 | 3.2 | 22.5 | 0.00 | 0.00 | 0.00 | 81 | 1007.6 |
| 20260505072703 | 20 | 164 | 8.0 | 24.1 | 0.00 | 0.00 | 0.00 | 81 | 1007.6 |
| 20260505072205 | 20 | 146 | 3.2 | 19.3 | 0.00 | 0.00 | 0.00 | 81 | 1007.5 |
| 20260505071704 | 20 | 163 | 4.8 | 14.5 | 0.00 | 0.00 | 0.00 | 80 | 1007.6 |
| 20260505071204 | 20 | 183 | 4.8 | 14.5 | 0.00 | 0.00 | 0.00 | 80 | 1007.7 |
| 20260505070704 | 20 | 216 | 4.8 | 24.1 | 0.00 | 0.00 | 0.00 | 79 | 1007.8 |
| 20260505070204 | 20 | 154 | 8.0 | 14.5 | 0.00 | 0.00 | 0.00 | 79 | 1008.0 |
| 20260505065704 | 20 | 196 | 4.8 | 14.5 | 0.00 | 0.00 | 0.00 | 79 | 1008.1 |
| 20260505065204 | 20 | 148 | 4.8 | 14.5 | 0.00 | 0.00 | 0.00 | 79 | 1008.0 |
| 20260505064704 | 20 | 196 | 4.8 | 12.9 | 0.00 | 0.00 | 0.00 | 79 | 1008.0 |
| 20260505064204 | 20 | 155 | 4.8 | 9.7 | 0.00 | 0.00 | 0.00 | 78 | 1008.1 |
| 20260505063704 | 20 | 146 | 4.8 | 24.1 | 0.00 | 0.00 | 0.00 | 78 | 1008.2 |
| 20260505063204 | 20 | 194 | 4.8 | 14.5 | 0.00 | 0.00 | 0.00 | 78 | 1008.3 |
| 20260505062205 | 20 | 186 | 4.8 | 9.7 | 0.00 | 0.00 | 0.00 | 78 | 1008.5 |
| 20260505061704 | 20 | 141 | 4.8 | 19.3 | 0.00 | 0.00 | 0.00 | 78 | 1008.6 |
| 20260505060204 | 20 | 191 | 6.4 | 14.5 | 0.00 | 0.00 | 0.00 | 78 | 1008.7 |
| 20260505055704 | 20 | 198 | 8.0 | 12.9 | 0.00 | 0.00 | 0.00 | 77 | 1008.6 |
| 20260505055205 | 21 | 121 | 1.6 | 12.9 | 0.00 | 0.00 | 0.00 | 77 | 1008.5 |
| 20260505054704 | 21 | 142 | 4.8 | 14.5 | 0.00 | 0.00 | 0.00 | 77 | 1008.5 |
| 20260505053704 | 21 | 150 | 4.8 | 9.7 | 0.00 | 0.00 | 0.00 | 77 | 1008.5 |
| 20260505052704 | 21 | 196 | 4.8 | 12.9 | 0.00 | 0.00 | 0.00 | 77 | 1008.6 |
| 20260505052204 | 21 | 189 | 3.2 | 9.7 | 0.00 | 0.00 | 0.00 | 77 | 1008.6 |
| 20260505051704 | 21 | 168 | 4.8 | 12.9 | 0.00 | 0.00 | 0.00 | 76 | 1008.6 |
| 20260505051204 | 21 | 130 | 8.0 | 14.5 | 0.00 | 0.00 | 0.00 | 76 | 1008.5 |
| 20260505050703 | 21 | 183 | 4.8 | 12.9 | 0.00 | 0.00 | 0.00 | 76 | 1008.6 |
| 20260505050203 | 21 | 195 | 6.4 | 12.9 | 0.00 | 0.00 | 0.00 | 76 | 1008.6 |
| 20260505041704 | 21 | 206 | 4.8 | 9.7 | 0.00 | 0.00 | 0.00 | 75 | 1008.8 |
| 20260505041204 | 21 | 174 | 3.2 | 14.5 | 0.00 | 0.00 | 0.00 | 75 | 1008.8 |
| 20260505040704 | 21 | 172 | 6.4 | 19.3 | 0.00 | 0.00 | 0.00 | 75 | 1008.9 |
| 20260505040204 | 21 | 166 | 3.2 | 11.3 | 0.00 | 0.00 | 0.00 | 74 | 1008.8 |
| 20260505035704 | 21 | 158 | 1.6 | 8.0 | 0.00 | 0.00 | 0.00 | 74 | 1008.8 |
| 20260505035204 | 21 | 185 | 6.4 | 19.3 | 0.00 | 0.00 | 0.00 | 74 | 1008.8 |
| 20260505034704 | 21 | 148 | 9.7 | 22.5 | 0.00 | 0.00 | 0.00 | 74 | 1009.0 |
| 20260505034204 | 21 | 150 | 4.8 | 9.7 | 0.00 | 0.00 | 0.00 | 73 | 1009.0 |
| 20260505033704 | 21 | 147 | 3.2 | 12.9 | 0.00 | 0.00 | 0.00 | 73 | 1008.9 |
| 20260505033203 | 21 | 156 | 4.8 | 11.3 | 0.00 | 0.00 | 0.00 | 73 | 1008.8 |
| 20260505032704 | 21 | 148 | 9.7 | 19.3 | 0.00 | 0.00 | 0.00 | 72 | 1008.8 |
| 20260505032204 | 21 | 132 | 3.2 | 11.3 | 0.00 | 0.00 | 0.00 | 72 | 1008.7 |
| 20260505031204 | 21 | 166 | 3.2 | 9.7 | 0.00 | 0.00 | 0.00 | 71 | 1008.8 |
| 20260505030204 | 21 | 143 | 3.2 | 12.9 | 0.00 | 0.00 | 0.00 | 70 | 1008.7 |
| 20260505025204 | 21 | 137 | 8.0 | 12.9 | 0.00 | 0.00 | 0.00 | 70 | 1008.6 |
| 20260505024703 | 21 | 153 | 4.8 | 12.9 | 0.00 | 0.00 | 0.00 | 70 | 1008.6 |
| 20260505024203 | 22 | 152 | 3.2 | 11.3 | 0.00 | 0.00 | 0.00 | 69 | 1008.6 |
| 20260505023704 | 22 | 157 | 3.2 | 11.3 | 0.00 | 0.00 | 0.00 | 69 | 1008.6 |
| 20260505023204 | 22 | 145 | 6.4 | 12.9 | 0.00 | 0.00 | 0.00 | 69 | 1008.4 |
| 20260505022204 | 22 | 181 | 4.8 | 9.7 | 0.00 | 0.00 | 0.00 | 68 | 1008.4 |
| 20260505021703 | 22 | 166 | 8.0 | 14.5 | 0.00 | 0.00 | 0.00 | 68 | 1008.2 |
| 20260505021204 | 22 | 155 | 4.8 | 14.5 | 0.00 | 0.00 | 0.00 | 67 | 1008.0 |
| 20260505020703 | 22 | 157 | 3.2 | 12.9 | 0.00 | 0.00 | 0.00 | 67 | 1008.0 |
| 20260505015704 | 22 | 151 | 4.8 | 20.9 | 0.00 | 0.00 | 0.00 | 67 | 1008.0 |
| 20260505015204 | 22 | 151 | 4.8 | 16.1 | 0.00 | 0.00 | 0.00 | 66 | 1008.0 |
| 20260505014704 | 22 | 139 | 3.2 | 11.3 | 0.00 | 0.00 | 0.00 | 66 | 1008.1 |
| 20260505014204 | 22 | 134 | 4.8 | 8.0 | 0.00 | 0.00 | 0.00 | 65 | 1008.0 |
| 20260505013703 | 22 | 129 | 8.0 | 19.3 | 0.00 | 0.00 | 0.00 | 65 | 1008.0 |
| 20260505013203 | 22 | 156 | 3.2 | 12.9 | 0.00 | 0.00 | 0.00 | 64 | 1008.0 |
| 20260505012203 | 23 | 125 | 4.8 | 19.3 | 0.00 | 0.00 | 0.00 | 63 | 1007.8 |
| 20260505011703 | 23 | 150 | 4.8 | 11.3 | 0.00 | 0.00 | 0.00 | 62 | 1007.8 |
| 20260505011205 | 23 | 141 | 4.8 | 9.7 | 0.00 | 0.00 | 0.00 | 61 | 1007.8 |
| 20260505010704 | 23 | 125 | 4.8 | 11.3 | 0.00 | 0.00 | 0.00 | 61 | 1007.7 |
| 20260505010204 | 23 | 145 | 4.8 | 9.7 | 0.00 | 0.00 | 0.00 | 60 | 1007.8 |
| 20260505005704 | 23 | 144 | 6.4 | 11.3 | 0.00 | 0.00 | 0.00 | 60 | 1007.9 |
| 20260505005205 | 23 | 124 | 3.2 | 11.3 | 0.00 | 0.00 | 0.00 | 60 | 1007.8 |
| 20260505004704 | 24 | 120 | 3.2 | 9.7 | 0.00 | 0.00 | 0.00 | 59 | 1007.8 |
| 20260505004204 | 24 | 138 | 3.2 | 11.3 | 0.00 | 0.00 | 0.00 | 58 | 1007.9 |
| 20260505003704 | 24 | 205 | 3.2 | 12.9 | 0.00 | 0.00 | 0.00 | 58 | 1008.1 |
| 20260505003203 | 24 | 154 | 4.8 | 14.5 | 0.00 | 0.00 | 0.00 | 57 | 1008.1 |
| 20260505002703 | 25 | 128 | 4.8 | 11.3 | 0.00 | 0.00 | 0.00 | 57 | 1008.1 |
| 20260505002204 | 25 | 174 | 4.8 | 9.7 | 0.00 | 0.00 | 0.00 | 57 | 1008.1 |
| 20260505001704 | 25 | 179 | 3.2 | 9.7 | 0.00 | 0.00 | 0.00 | 56 | 1008.1 |
| 20260505000704 | 25 | 167 | 4.8 | 8.0 | 0.00 | 0.00 | 0.00 | 54 | 1008.2 |
| 20260505000204 | 25 | 234 | 4.8 | 11.3 | 0.00 | 0.00 | 0.00 | 54 | 1008.3 |
| 20260504235704 | 25 | 148 | 1.6 | 14.5 | 0.00 | 0.00 | 0.00 | 53 | 1008.4 |
| 20260504235204 | 25 | 148 | 4.8 | 11.3 | 0.00 | 0.00 | 0.00 | 53 | 1008.3 |
| 20260504234703 | 26 | 136 | 6.4 | 14.5 | 0.00 | 0.00 | 0.00 | 52 | 1008.4 |
| 20260504234204 | 26 | 158 | 8.0 | 19.3 | 0.00 | 0.00 | 0.00 | 51 | 1008.3 |
| 20260504233704 | 26 | 175 | 4.8 | 14.5 | 0.00 | 0.00 | 0.00 | 50 | 1008.3 |
| 20260504233204 | 26 | 199 | 8.0 | 19.3 | 0.00 | 0.00 | 0.00 | 51 | 1008.4 |
| 20260504232704 | 26 | 146 | 3.2 | 12.9 | 0.00 | 0.00 | 0.00 | 50 | 1008.4 |
| 20260504232204 | 26 | 197 | 4.8 | 22.5 | 0.00 | 0.00 | 0.00 | 50 | 1008.4 |
| 20260504231704 | 26 | 144 | 9.7 | 20.9 | 0.00 | 0.00 | 0.00 | 50 | 1008.5 |
| 20260504231204 | 26 | 156 | 4.8 | 20.9 | 0.00 | 0.00 | 0.00 | 50 | 1008.6 |
| 20260504230704 | 26 | 154 | 9.7 | 19.3 | 0.00 | 0.00 | 0.00 | 50 | 1008.7 |
| 20260504230205 | 26 | 167 | 4.8 | 24.1 | 0.00 | 0.00 | 0.00 | 49 | 1008.8 |
| 20260504225704 | 26 | 151 | 9.7 | 24.1 | 0.00 | 0.00 | 0.00 | 49 | 1008.9 |
| 20260504225204 | 26 | 155 | 4.8 | 19.3 | 0.00 | 0.00 | 0.00 | 49 | 1008.8 |
| 20260504224704 | 26 | 138 | 6.4 | 19.3 | 0.00 | 0.00 | 0.00 | 49 | 1009.1 |
| 20260504224204 | 26 | 143 | 4.8 | 11.3 | 0.00 | 0.00 | 0.00 | 48 | 1009.3 |
| 20260504223703 | 26 | 156 | 9.7 | 19.3 | 0.00 | 0.00 | 0.00 | 47 | 1009.2 |
| 20260504223203 | 26 | 151 | 11.3 | 27.4 | 0.00 | 0.00 | 0.00 | 47 | 1009.2 |
| 20260504222703 | 26 | 149 | 8.0 | 20.9 | 0.00 | 0.00 | 0.00 | 47 | 1009.4 |
| 20260504222204 | 26 | 197 | 8.0 | 22.5 | 0.00 | 0.00 | 0.00 | 47 | 1009.4 |
| 20260504221704 | 26 | 195 | 8.0 | 16.1 | 0.00 | 0.00 | 0.00 | 46 | 1009.3 |
| 20260504221203 | 26 | 161 | 9.7 | 19.3 | 0.00 | 0.00 | 0.00 | 45 | 1009.2 |
| 20260504220703 | 26 | 147 | 3.2 | 14.5 | 0.00 | 0.00 | 0.00 | 45 | 1009.4 |
| 20260504215203 | 26 | 188 | 12.9 | 24.1 | 0.00 | 0.00 | 0.00 | 45 | 1009.7 |
| 20260504214703 | 26 | 167 | 4.8 | 14.5 | 0.00 | 0.00 | 0.00 | 47 | 1009.7 |
| 20260504214204 | 26 | 212 | 3.2 | 19.3 | 0.00 | 0.00 | 0.00 | 45 | 1009.7 |
| 20260504213704 | 26 | 182 | 9.7 | 19.3 | 0.00 | 0.00 | 0.00 | 45 | 1009.9 |
| 20260504213204 | 26 | 148 | 6.4 | 12.9 | 0.00 | 0.00 | 0.00 | 46 | 1010.1 |
| 20260504212703 | 26 | 147 | 3.2 | 22.5 | 0.00 | 0.00 | 0.00 | 47 | 1010.3 |
| 20260504211704 | 26 | 147 | 9.7 | 22.5 | 0.00 | 0.00 | 0.00 | 46 | 1010.6 |
| 20260504211203 | 26 | 171 | 6.4 | 19.3 | 0.00 | 0.00 | 0.00 | 45 | 1010.3 |
| 20260504210704 | 26 | 171 | 11.3 | 20.9 | 0.00 | 0.00 | 0.00 | 45 | 1010.3 |
| 20260504210204 | 26 | 150 | 11.3 | 22.5 | 0.00 | 0.00 | 0.00 | 47 | 1010.6 |
| 20260504205704 | 26 | 124 | 11.3 | 22.5 | 0.00 | 0.00 | 0.00 | 46 | 1010.6 |
| 20260504205203 | 26 | 154 | 9.7 | 19.3 | 0.00 | 0.00 | 0.00 | 47 | 1010.8 |
| 20260504204703 | 26 | 133 | 8.0 | 22.5 | 0.00 | 0.00 | 0.00 | 47 | 1010.9 |
| 20260504204204 | 26 | 142 | 6.4 | 19.3 | 0.00 | 0.00 | 0.00 | 47 | 1011.0 |
| 20260504203704 | 26 | 177 | 9.7 | 19.3 | 0.00 | 0.00 | 0.00 | 46 | 1010.9 |
| 20260504203204 | 26 | 178 | 6.4 | 12.9 | 0.00 | 0.00 | 0.00 | 47 | 1011.1 |
| 20260504202704 | 26 | 144 | 8.0 | 16.1 | 0.00 | 0.00 | 0.00 | 46 | 1011.2 |
| 20260504201704 | 26 | 205 | 3.2 | 12.9 | 0.00 | 0.00 | 0.00 | 47 | 1011.4 |
| 20260504201203 | 26 | 150 | 4.8 | 12.9 | 0.00 | 0.00 | 0.00 | 47 | 1011.5 |
| 20260504200703 | 26 | 179 | 8.0 | 20.9 | 0.00 | 0.00 | 0.00 | 47 | 1011.6 |
| 20260504200204 | 26 | 131 | 11.3 | 20.9 | 0.00 | 0.00 | 0.00 | 45 | 1011.6 |
| 20260504195705 | 26 | 164 | 9.7 | 22.5 | 0.00 | 0.00 | 0.00 | 47 | 1011.7 |
| 20260504195204 | 26 | 177 | 4.8 | 22.5 | 0.00 | 0.00 | 0.00 | 47 | 1011.8 |
| 20260504194704 | 26 | 128 | 8.0 | 22.5 | 0.00 | 0.00 | 0.00 | 48 | 1011.9 |
| 20260504194204 | 26 | 197 | 8.0 | 19.3 | 0.00 | 0.00 | 0.00 | 46 | 1012.0 |
| 20260504193704 | 26 | 191 | 6.4 | 19.3 | 0.00 | 0.00 | 0.00 | 45 | 1012.1 |
| 20260504193203 | 26 | 263 | 9.7 | 16.1 | 0.00 | 0.00 | 0.00 | 46 | 1012.2 |
| 20260504192204 | 26 | 122 | 4.8 | 27.4 | 0.00 | 0.00 | 0.00 | 49 | 1012.3 |
| 20260504191703 | 26 | 126 | 9.7 | 22.5 | 0.00 | 0.00 | 0.00 | 47 | 1012.4 |
| 20260504191204 | 26 | 190 | 3.2 | 12.9 | 0.00 | 0.00 | 0.00 | 46 | 1012.5 |
| 20260504190704 | 26 | 77 | 8.0 | 20.9 | 0.00 | 0.00 | 0.00 | 47 | 1012.6 |
| 20260504185704 | 26 | 179 | 6.4 | 12.9 | 0.00 | 0.00 | 0.00 | 47 | 1012.8 |
| 20260504185204 | 26 | 219 | 8.0 | 12.9 | 0.00 | 0.00 | 0.00 | 49 | 1012.8 |
| 20260504184704 | 26 | 184 | 4.8 | 12.9 | 0.00 | 0.00 | 0.00 | 48 | 1012.8 |
| 20260504184203 | 26 | 220 | 8.0 | 11.3 | 0.00 | 0.00 | 0.00 | 49 | 1013.0 |
| 20260504183704 | 26 | 148 | 4.8 | 12.9 | 0.00 | 0.00 | 0.00 | 49 | 1013.0 |
| 20260504183204 | 26 | 215 | 4.8 | 22.5 | 0.00 | 0.00 | 0.00 | 49 | 1013.1 |
| 20260504182704 | 26 | 162 | 8.0 | 19.3 | 0.00 | 0.00 | 0.00 | 47 | 1013.4 |
| 20260504182204 | 26 | 173 | 12.9 | 29.0 | 0.00 | 0.00 | 0.00 | 46 | 1013.3 |
| 20260504181204 | 26 | 141 | 4.8 | 16.1 | 0.00 | 0.00 | 0.00 | 48 | 1013.5 |
| 20260504180203 | 26 | 177 | 14.5 | 24.1 | 0.00 | 0.00 | 0.00 | 44 | 1013.6 |
| 20260504175703 | 26 | 158 | 9.7 | 32.2 | 0.00 | 0.00 | 0.00 | 45 | 1013.8 |
| 20260504175204 | 26 | 170 | 8.0 | 19.3 | 0.00 | 0.00 | 0.00 | 43 | 1013.9 |
| 20260504174704 | 26 | 232 | 4.8 | 14.5 | 0.00 | 0.00 | 0.00 | 46 | 1013.9 |
| 20260504174204 | 26 | 197 | 6.4 | 20.9 | 0.00 | 0.00 | 0.00 | 51 | 1013.7 |
| 20260504173704 | 26 | 146 | 8.0 | 25.7 | 0.00 | 0.00 | 0.00 | 48 | 1013.8 |
| 20260504172703 | 25 | 151 | 6.4 | 16.1 | 0.00 | 0.00 | 0.00 | 50 | 1013.9 |
| 20260504172204 | 25 | 131 | 12.9 | 22.5 | 0.00 | 0.00 | 0.00 | 46 | 1013.8 |
| 20260504171704 | 25 | 188 | 11.3 | 29.0 | 0.00 | 0.00 | 0.00 | 45 | 1013.9 |
| 20260504171204 | 25 | 156 | 11.3 | 32.2 | 0.00 | 0.00 | 0.00 | 48 | 1014.0 |
| 20260504170704 | 26 | 140 | 11.3 | 22.5 | 0.00 | 0.00 | 0.00 | 48 | 1014.1 |
| 20260504170204 | 25 | 140 | 11.3 | 24.1 | 0.00 | 0.00 | 0.00 | 48 | 1014.1 |
| 20260504160204 | 24 | 283 | 3.2 | 14.5 | 0.00 | 0.00 | 0.00 | 53 | 1014.8 |
| 20260504150704 | 23 | 138 | 8.0 | 20.9 | 0.00 | 0.00 | 0.00 | 57 | 1014.9 |
| 20260504150204 | 23 | 188 | 4.8 | 12.9 | 0.00 | 0.00 | 0.00 | 57 | 1015.0 |
| 20260504141203 | 21 | 201 | 4.8 | 11.3 | 0.00 | 0.00 | 0.00 | 63 | 1015.1 |
| 20260504140204 | 21 | 190 | 3.2 | 11.3 | 0.00 | 0.00 | 0.00 | 65 | 1015.0 |
| 20260504130204 | 15 | 203 | 3.2 | 4.8 | 0.00 | 0.00 | 0.00 | 80 | 1015.1 |
| 20260504110704 | 13 | 184 | 0.0 | 1.6 | 0.00 | 0.00 | 0.00 | 87 | 1014.5 |
| 20260504110204 | 13 | 184 | 0.0 | 3.2 | 0.00 | 0.00 | 0.00 | 86 | 1014.4 |
| 20260504100203 | 13 | 184 | 0.0 | 3.2 | 0.00 | 0.00 | 0.00 | 83 | 1014.9 |